Location: ??????????
(54.7560°N, 39.1389°E)
Time: 01:58:21
(UTC+00:00)

Okean 1 - Pass Details

Date: 19 May 2025
Orbit: 477 x 499 km, 82.5° (Epoch: 14 June)

Event Time Altitude Azimuth Distance (km) Brightness Sun altitude
Exits shadow 20:08:21 - 218° (SW) 1,741 5.5 -13.7°
Reaches altitude 10° 20:08:30 10° 219° (SW) 1,683 5.5 -13.7°
Maximum altitude 20:11:57 37° 289° (WNW) 773 4.4 -13.9°
Drops below altitude 10° 20:15:24 10° 358° (N) 1,684 7.1 -14.0°
Sets 20:17:37 0° 7° (N) 2,566 8.1 -14.1°
